Location: Unspecified
(0.0000°N, 0.0000°E)
Time: 17:45:29
(UTC+00:00)

Vanguard 2 - Pass Details

Date: 23 April 2026
Orbit: 553 x 2895 km, 32.9° (Epoch: 17 May)

Event Time Altitude Azimuth Distance (km) Brightness Sun altitude
Rises 19:34:49 0° 268° (W) 4,187 12.6 -23.5°
Reaches altitude 10° 19:37:50 10° 256° (WSW) 3,534 11.7 -24.2°
Maximum altitude 19:45:38 28° 201° (SSW) 3,102 10.6 -26.1°
Enters shadow 19:54:11 15° 156° (SSE) 4,543 11.1 -28.2°
